User: anonymous   Login
Location: Nebula Knoll Observatory
(43.6666°N, 71.0000°W)
Time: 15:11:19
(UTC-04:00)
Language:

Cosmos 1782 - Orbit

View from above orbital plane
View from above orbital plane
View from above satellite
View from above satellite

Ground track
Ground track

The orbit data is extracted from the following two-line orbital elements,

1 16986U 86074A   17113.71682515 +.00001514 +00000-0 +10042-3 0  9994
2 16986 082.5091 174.2191 0011270 162.1855 197.9770 15.06524995641479
Epoch (UTC): 23 April 2017 17:12:13
Eccentricity: 0.0011270
inclination: 82.5091°
perigee height: 539 km
apogee height: 554 km
right ascension of ascending node: 174.2191°
argument of perigee: 162.1855°
revolutions per day: 15.06524995
mean anomaly at epoch: 197.9770°
orbit number at epoch: 64147

The dashed part of the orbit path shows where the satellite is in the earth's shadow,  

DLR